Stations météo

réclame
Mon MeteoGroup
Harstena, Suède (2563): Température de l'air & dewpoint: 15.10.2017 14:00:00 - 21.10.2017 14:00:00 (CEST)Harstena, Suède (2563): Vitesse du vent & gusts: 15.10.2017 14:00:00 - 21.10.2017 14:00:00 (CEST)Harstena, Suède (2563): Direction du vent: 15.10.2017 14:00:00 - 21.10.2017 14:00:00 (CEST)Harstena, Suède (2563): reduced air pressure: 15.10.2017 14:00:00 - 21.10.2017 14:00:00 (CEST)Harstena, Suède (2563): visibility: 15.10.2017 14:00:00 - 21.10.2017 14:00:00 (CEST)Harstena, Suède (2563): Quantités de précipitations: 15.10.2017 14:00:00 - 21.10.2017 14:00:00 (CEST)
Date & Time tt [°C] td [°C] ff [km/h] ff [knt] fx [km/h] fx [knt] dd ppp [hPa] vv [km] rr [mm]
21.10.2017 14:00:00 - - - - - - - - - -
21.10.2017 13:00:00 10,2 5,4 29 15 47 26 E 1020,3 50 0,0
21.10.2017 12:00:00 10,3 4,0 29 16 50 27 E 1020,6 50 0,0
21.10.2017 11:00:00 10,2 4,6 32 17 50 27 E 1020,4 50 0,0
21.10.2017 10:00:00 10,1 5,1 33 18 52 28 E 1020,0 50 0,0
21.10.2017 09:00:00 10,1 5,9 32 17 52 28 E 1019,7 50 0,0
21.10.2017 08:00:00 10,0 5,4 34 19 50 27 E 1019,3 50 0,0
21.10.2017 07:00:00 10,1 5,7 32 17 50 27 E 1019,0 50 0,0
21.10.2017 06:00:00 10,1 5,5 34 19 50 27 E 1019,1 50 0,0
21.10.2017 05:00:00 10,1 6,1 31 17 47 26 E 1019,2 50 0,0
21.10.2017 04:00:00 10,0 6,7 32 17 46 25 E 1019,2 50 0,0
21.10.2017 03:00:00 10,1 6,3 30 16 46 25 E 1019,6 50 0,0
21.10.2017 02:00:00 10,1 6,4 29 16 46 25 E 1019,7 50 0,0
21.10.2017 01:00:00 10,2 6,7 30 16 44 24 E 1019,7 50 0,0
21.10.2017 00:00:00 10,2 6,3 29 16 43 23 E 1019,8 50 0,0
20.10.2017 23:00:00 10,4 6,2 31 17 43 23 E 1020,0 50 0,0
20.10.2017 22:00:00 10,2 6,0 28 15 39 21 E 1020,1 50 0,0
20.10.2017 21:00:00 10,2 6,0 24 13 38 21 E 1020,2 50 0,0
20.10.2017 20:00:00 10,3 6,8 26 14 38 21 E 1020,3 50 0,0
20.10.2017 19:00:00 10,3 6,8 24 13 36 20 E 1020,2 50 0,0
20.10.2017 18:00:00 10,2 6,9 23 12 36 20 E 1019,8 50 0,0
20.10.2017 17:00:00 10,3 7,4 22 12 35 19 E 1019,9 50 0,0
20.10.2017 16:00:00 10,3 6,8 24 13 31 17 ESE 1020,1 50 0,0
20.10.2017 15:00:00 10,3 7,0 21 11 29 16 ESE 1020,2 50 0,0
20.10.2017 14:00:00 10,3 6,7 18 10 29 16 ESE 1020,2 50 0,0
20.10.2017 13:00:00 10,6 7,5 16 9 29 16 SE 1020,4 50 0,0
20.10.2017 12:00:00 10,7 7,2 17 9 26 14 SE 1020,8 50 0,0
20.10.2017 11:00:00 10,2 7,4 14 8 25 13 SE 1021,0 50 0,0
20.10.2017 10:00:00 10,0 7,6 13 7 26 14 SE 1020,9 50 0,0
20.10.2017 09:00:00 9,5 6,8 14 8 26 14 SE 1020,4 50 0,0
20.10.2017 08:00:00 9,1 6,5 13 7 24 13 SE 1020,2 50 0,0
20.10.2017 07:00:00 9,0 6,4 13 7 20 11 SE 1020,3 50 0,0
20.10.2017 06:00:00 8,9 6,5 10 5 19 11 SE 1020,7 50 0,0
20.10.2017 05:00:00 8,8 6,6 10 5 22 12 SE 1020,7 50 0,0
20.10.2017 04:00:00 8,2 6,5 12 7 22 12 SSE 1020,9 50 0,0
20.10.2017 03:00:00 8,4 6,7 11 6 21 11 SSE 1021,1 50 0,0
20.10.2017 02:00:00 8,4 6,5 10 6 21 11 SE 1021,3 50 0,0
20.10.2017 01:00:00 8,2 6,0 11 6 20 11 SE 1021,3 50 0,0
20.10.2017 00:00:00 8,1 5,4 11 6 21 11 SE 1021,5 50 0,0
19.10.2017 23:00:00 8,7 5,1 13 7 21 11 ESE 1021,4 50 0,0
19.10.2017 22:00:00 8,6 4,8 12 7 18 10 ESE 1021,4 50 0,0
19.10.2017 21:00:00 8,8 4,4 11 6 18 10 E 1021,3 50 0,0
19.10.2017 20:00:00 8,2 3,6 9 5 14 7 ENE 1021,3 40 0,0
19.10.2017 19:00:00 8,0 2,9 8 4 9 5 ENE 1021,2 50 0,0
19.10.2017 18:00:00 8,1 2,3 6 3 11 6 NE 1021,3 50 0,0
19.10.2017 17:00:00 8,8 4,0 4 2 11 6 NE 1021,1 50 0,0
19.10.2017 16:00:00 9,1 4,7 5 3 9 5 NNE 1020,9 50 0,0
19.10.2017 15:00:00 9,9 4,3 4 2 10 6 NNE 1021,0 50 0,0
19.10.2017 14:00:00 9,7 4,3 4 2 14 8 NNW 1021,1 49 0,0
19.10.2017 13:00:00 9,2 4,6 6 3 14 8 NNW 1021,2 47 0,0
19.10.2017 12:00:00 8,7 4,7 8 4 13 7 N 1021,0 49 0,0
19.10.2017 11:00:00 8,3 5,1 6 4 16 8 NNW 1021,0 41 0,0
19.10.2017 10:00:00 7,9 5,2 6 3 18 10 NW 1020,7 47 0,0
19.10.2017 09:00:00 7,1 4,7 9 5 18 10 N 1020,3 50 0,0
19.10.2017 08:00:00 5,9 4,7 10 5 17 9 NNW 1019,5 50 0,0
19.10.2017 07:00:00 5,7 4,3 10 5 19 10 NNW 1019,0 50 0,0
19.10.2017 06:00:00 5,9 4,1 12 6 22 12 NNW 1018,8 50 0,0
19.10.2017 05:00:00 6,0 4,2 14 8 22 12 NNW 1018,6 50 0,0
19.10.2017 04:00:00 6,2 4,5 14 8 20 11 NNW 1018,4 50 0,0
19.10.2017 03:00:00 6,6 4,6 14 8 20 11 NW 1018,2 50 0,0
19.10.2017 02:00:00 6,4 4,6 11 6 17 9 NW 1018,1 50 0,0
19.10.2017 01:00:00 6,9 4,6 10 6 18 10 NW 1017,8 50 0,0
19.10.2017 00:00:00 7,3 4,6 9 5 18 10 NW 1017,7 50 0,0
18.10.2017 23:00:00 7,0 5,3 9 5 16 9 NW 1017,5 50 0,0
18.10.2017 22:00:00 7,1 5,1 9 5 16 9 WNW 1017,1 50 0,0
18.10.2017 21:00:00 7,4 4,9 10 5 18 10 WNW 1016,5 50 0,0
18.10.2017 20:00:00 7,8 4,7 11 6 18 10 WNW 1016,1 50 0,0
18.10.2017 19:00:00 8,2 4,6 8 5 20 11 W 1015,7 50 0,0
18.10.2017 18:00:00 8,8 4,4 9 5 20 11 W 1015,0 50 0,0
18.10.2017 17:00:00 9,8 4,2 10 5 20 11 W 1014,5 50 0,0
18.10.2017 16:00:00 10,3 3,8 11 6 24 13 WNW 1014,0 50 0,0
18.10.2017 15:00:00 10,3 3,6 14 8 24 13 NW 1013,8 50 0,0
18.10.2017 14:00:00 9,9 4,5 14 8 26 14 WNW 1013,5 50 0,0
18.10.2017 13:00:00 8,8 4,8 13 7 32 18 WNW 1013,1 50 0,0
18.10.2017 12:00:00 8,2 4,4 18 10 38 20 NNW 1012,5 50 0,0
18.10.2017 11:00:00 8,1 4,1 19 11 40 22 N 1011,9 50 0,0
18.10.2017 10:00:00 7,8 4,9 24 13 40 22 NNW 1010,9 50 0,0
18.10.2017 09:00:00 9,0 7,1 22 12 39 21 N 1009,3 33 0,0
18.10.2017 08:00:00 11,3 10,2 13 7 30 16 WNW 1007,4 13 0,0
18.10.2017 07:00:00 11,1 10,2 13 7 37 20 W 1006,3 50 0,0
18.10.2017 06:00:00 12,0 9,6 17 9 37 20 WSW 1005,6 30 0,0
18.10.2017 05:00:00 12,8 8,5 19 10 47 26 WSW 1005,0 42 0,0
18.10.2017 04:00:00 12,7 8,4 19 10 47 26 WSW 1004,8 50 0,0
18.10.2017 03:00:00 13,1 8,0 19 10 36 19 WSW 1005,0 38 0,0
18.10.2017 02:00:00 12,4 8,1 17 9 31 17 SW 1005,1 23 0,0
18.10.2017 01:00:00 12,4 8,1 16 9 31 17 SW 1005,1 28 0,0
18.10.2017 00:00:00 12,4 7,3 17 9 39 21 SW 1005,2 30 0,0
17.10.2017 23:00:00 13,0 7,4 18 10 46 25 SW 1005,6 28 0,0
17.10.2017 22:00:00 13,4 7,6 22 12 46 25 SW 1005,7 27 0,0
17.10.2017 21:00:00 13,2 7,4 19 10 38 21 SW 1006,3 28 0,0
17.10.2017 20:00:00 13,7 7,7 18 10 35 19 SW 1006,6 32 0,0
17.10.2017 19:00:00 13,8 7,6 13 7 40 21 SW 1007,2 29 0,0
17.10.2017 18:00:00 14,6 6,9 25 13 40 22 WSW 1007,3 36 0,0
17.10.2017 17:00:00 14,7 7,5 20 11 43 23 W 1007,6 28 0,0
17.10.2017 16:00:00 14,8 7,8 15 8 49 26 W 1007,8 19 0,0
17.10.2017 15:00:00 15,7 7,5 21 12 49 26 W 1007,9 20 0,0
17.10.2017 14:00:00 16,1 11,9 18 10 29 16 SW 1007,6 11 0,0
17.10.2017 13:00:00 14,5 13,0 17 9 28 15 S 1008,1 6 0,0
17.10.2017 12:00:00 13,1 12,3 15 8 39 21 S 1009,1 3,6 0,0
17.10.2017 11:00:00 12,7 12,1 19 10 42 23 SSW 1009,6 3,6 0,0
17.10.2017 10:00:00 12,4 11,8 28 15 42 23 S 1010,2 5 0,0
17.10.2017 09:00:00 11,9 11,3 21 12 32 17 S 1011,2 8 0,1
17.10.2017 08:00:00 11,3 10,8 16 9 28 15 S 1012,2 9 0,3
17.10.2017 07:00:00 10,7 10,1 8 4 13 7 S 1014,0 10 0,0
17.10.2017 06:00:00 10,3 9,4 4 2 16 9 S 1014,8 17 0,0
17.10.2017 05:00:00 10,4 9,3 7 4 20 11 SW 1015,6 12 0,3
17.10.2017 04:00:00 11,3 8,2 11 6 20 11 W 1016,7 36 0,0
17.10.2017 03:00:00 11,4 8,3 12 7 21 12 W 1016,2 39 0,0
17.10.2017 02:00:00 11,4 8,4 10 6 23 13 W 1016,0 31 0,0
17.10.2017 01:00:00 11,5 8,2 11 6 27 14 W 1016,0 33 0,0
17.10.2017 00:00:00 11,8 8,3 14 8 27 14 W 1016,2 34 0,0
16.10.2017 23:00:00 12,0 8,7 14 8 23 13 W 1016,3 32 0,0
16.10.2017 22:00:00 12,6 8,5 13 7 22 12 W 1015,8 29 0,0
16.10.2017 21:00:00 13,0 8,9 12 7 21 11 W 1016,0 28 0,0
16.10.2017 20:00:00 13,3 9,0 9 5 18 10 W 1015,6 29 0,0
16.10.2017 19:00:00 14,2 9,0 11 6 22 12 W 1015,0 38 0,0
16.10.2017 18:00:00 14,8 9,0 10 5 32 17 W 1014,4 39 0,0
16.10.2017 17:00:00 15,9 9,3 14 8 32 17 WNW 1013,3 43 0,0
16.10.2017 16:00:00 16,5 9,7 12 6 35 19 WNW 1012,8 44 0,0
16.10.2017 15:00:00 16,8 10,0 14 7 53 29 WNW 1012,6 41 0,0
16.10.2017 14:00:00 17,0 9,9 22 12 53 29 W 1012,3 40 0,0
16.10.2017 13:00:00 16,4 9,8 24 13 48 26 W 1011,8 42 0,0
16.10.2017 12:00:00 16,5 10,6 19 11 44 24 W 1011,5 46 0,0
16.10.2017 11:00:00 16,2 10,7 19 11 45 25 W 1011,1 46 0,0
16.10.2017 10:00:00 16,1 10,8 22 12 45 25 WSW 1010,3 41 0,0
16.10.2017 09:00:00 15,5 11,1 11 6 30 16 W 1010,5 34 0,0
16.10.2017 08:00:00 15,3 11,3 16 9 29 16 WSW 1010,1 24 0,0
16.10.2017 07:00:00 13,2 11,6 18 10 27 15 SSW 1009,7 13 0,0
16.10.2017 06:00:00 12,7 11,4 15 8 27 15 SSW 1010,3 11 0,0
16.10.2017 05:00:00 12,1 11,3 14 8 31 17 S 1011,0 10 0,0
16.10.2017 04:00:00 12,1 11,2 20 11 31 17 SSW 1011,5 14 0,0
16.10.2017 03:00:00 11,7 10,8 16 9 29 16 SSW 1012,3 22 0,0
16.10.2017 02:00:00 12,6 10,5 16 9 29 16 SW 1013,0 49 0,0
16.10.2017 01:00:00 11,8 10,7 15 8 29 16 SSW 1013,6 37 0,0
16.10.2017 00:00:00 12,0 10,6 18 10 29 16 SSW 1014,2 33 0,0
15.10.2017 23:00:00 12,6 10,5 18 10 27 15 SSW 1014,9 38 0,0
15.10.2017 22:00:00 12,9 9,3 16 9 29 16 SW 1015,7 38 0,0
15.10.2017 21:00:00 12,5 9,1 21 11 29 16 SSW 1016,1 27 0,0
15.10.2017 20:00:00 12,2 9,4 20 11 29 16 SSW 1016,9 21 0,0
15.10.2017 19:00:00 12,5 9,3 19 10 29 16 SSW 1017,6 25 0,0
15.10.2017 18:00:00 12,6 9,2 12 6 18 10 SSW 1017,8 24 0,0
15.10.2017 17:00:00 13,3 8,2 7 4 14 8 SW 1018,3 29 0,0
15.10.2017 16:00:00 13,6 7,6 5 3 24 13 SW 1018,8 29 0,0
15.10.2017 15:00:00 14,0 6,4 9 5 24 13 W 1018,7 33 0,0
15.10.2017 14:00:00 14,7 6,3 13 7 23 12 WSW 1018,8 36 0,0

tt = Température de l'air
td = dewpoint
ff = Vitesse du vent
fx = gusts
dd = Direction du vent
ppp = reduced air pressure
vv = visibility
rr = Quantités de précipitations

stations d'obs. à proximité